Погода в Потьме

Россия / Республика Мордовия     54°07′03″N   42°54′19″E
темп.,
°C
ветер,
м/с
пор.,
м/с
влажн.,
%
обл.,
%
осадки,
мм/ч
давл.,
гПа
погр.,
м
8 августа, пн
пн800:00+20ююв33473 0.0 101935
03:00+19ю22524 0.0 101911
06:00+21ююв224896 0.0 102037
09:00+26ююв223831 0.0 1020430
12:00+30ююв33304 0.0 10201332
15:00+31з122535 0.0 10183111
18:00+28сз36408 0.0 1019172
21:00+21вюв01515 0.0 102011
9 августа, вт
вт900:00+21ююз23480 0.0 101916
03:00+19ю22525 0.0 102012
06:00+20ююз11569 0.0 102011
09:00+27ююв11398 0.0 1019387
12:00+31ю11289 0.0 10192492
15:00+31юв2325100 0.0 10172831
18:00+26ссв353824 0.0 1017125
21:00+24вюв2245100 0.1 101735
10 августа, ср
ср1000:00+20с0156100 0.0 101716
03:00+18ссв1163100 0.0 101719
06:00+18ссз4885100 0.0 1019277
09:00+20всв3676100 0.1 1018211
12:00+21с3475100 0.1 1019365
15:00+25ссв3355100 0.1 1019765
18:00+22ссз566898 0.0 1020568
21:00+18ссз368198 0.0 1021196
11 августа, чт
чт1100:00+18с4981100 0.0 1021347
03:00+13с378316 0.0 1022136
06:00+13с378017 0.0 1023175
09:00+19с56570 0.0 1024711
12:00+23св66410 0.0 10241327
15:00+24св55350 0.0 10231655
18:00+23св35410 0.0 1023431
21:00+16всв23600 0.0 102420
12 августа, пт
пт1200:00+15ююв11685 0.0 102511
03:00+14сз1171100 0.0 102511
06:00+15зсз117046 0.0 102620
09:00+21зсз33485 0.0 1026548
12:00+25сз343669 0.0 10241856
15:00+26ссз44325 0.0 10232129
18:00+25ссз35403 0.0 1022244
21:00+18сз22510 0.0 102311